Anniston, AL

8:52 AM CST on November 15, 2019 (GMT -0600)
Anniston Metro

Weather History for KANB - September, 2019

Change the Weather History Date:

Tuesday, September 3, 2019

  Actual Average Record
Temperature  
Mean Temperature 81 °F 77 °F  
Max Temperature 95 °F 88 °F 98 °F (1957)
Min Temperature 67 °F 67 °F 49 °F (1905)
Degree Days  
Heating Degree Days 0    
Month to date heating degree days 0  
Since 1 July heating degree days 0  
Cooling Degree Days 14    
Growing Degree Days 30 (Base 50)    
Moisture  
Dew Point 65 °F    
Average Humidity 63    
Maximum Humidity 93    
Minimum Humidity 32    
Precipitation  
Precipitation 0.00 in 0.10 in 2.41 in (2001)
Month to date precipitation T 0.30  
Year to date precipitation 39.17 35.22  
Sea Level Pressure  
Sea Level Pressure 29.97 in    
Wind  
Wind Speed 2 mph (NE)    
Max Wind Speed 12 mph    
Max Gust Speed 16 mph    
Visibility 10 miles    
Events      
T = Trace of Precipitation, MM = Missing Value Source: NWS Daily Summary

Daily Weather History Graph

Daily Weather History Graph

Search for Another Location

Airport or City:

Astronomy

Sep. 03, 2019 Rise Set
Actual Time 6:18 AM CDT 7:06 PM CDT
Civil Twilight 5:53 AM CDT 7:31 PM CDT
Nautical Twilight 5:23 AM CDT 8:01 PM CDT
Astronomical Twilight 4:52 AM CDT 8:32 PM CDT
Moon 10:57 AM CDT (9/3) 10:17 PM CDT (9/3)
Length of Visible Light 13h 38m
Length of Day
12h 47m
Waxing Crescent, 25% of the Moon is Illuminated
Sep 3
Waxing Crescent
Sep 5
First Quarter
Sep 13
Full
Sep 21
Last Quarter
Sep 28
New

Hourly Weather History & Observations

Time (CDT) Temp. Heat Index Dew Point Humidity Pressure Visibility Wind Dir Wind Speed Gust Speed Precip Events Conditions
12:53 AM 71.1 °F - 66.9 °F 87% 29.97 in 10.0 mi Calm Calm - N/A   Clear
1:53 AM 68.0 °F - 66.0 °F 93% 29.96 in 10.0 mi Calm Calm - N/A   Clear
2:53 AM 68.0 °F - 66.0 °F 93% 29.96 in 10.0 mi Calm Calm - N/A   Clear
3:53 AM 69.1 °F - 66.9 °F 93% 29.96 in 10.0 mi Calm Calm - N/A   Clear
4:53 AM 66.9 °F - 64.9 °F 93% 29.96 in 10.0 mi Calm Calm - N/A   Clear
5:53 AM 68.0 °F - 66.0 °F 93% 29.99 in 10.0 mi East 3.5 mph - N/A   Clear
6:53 AM 68.0 °F - 66.0 °F 93% 30.00 in 10.0 mi Calm Calm - N/A   Clear
7:53 AM 73.9 °F - 66.9 °F 79% 30.01 in 10.0 mi NNE 4.6 mph - N/A   Clear
8:53 AM 78.1 °F - 68.0 °F 71% 30.02 in 10.0 mi ENE 4.6 mph - N/A   Clear
9:53 AM 84.9 °F 88.8 °F 69.1 °F 59% 30.02 in 10.0 mi Calm Calm - N/A   Clear
10:53 AM 89.1 °F 92.9 °F 68.0 °F 50% 30.01 in 10.0 mi Variable 3.5 mph - N/A   Clear
11:53 AM 88.0 °F 90.3 °F 66.0 °F 48% 29.99 in 10.0 mi NE 4.6 mph - N/A   Clear
12:53 PM 91.9 °F 94.5 °F 66.0 °F 42% 29.97 in 10.0 mi Calm Calm - N/A   Clear
1:53 PM 93.0 °F 94.6 °F 64.0 °F 38% 29.96 in 10.0 mi Variable 3.5 mph - N/A   Scattered Clouds
2:53 PM 91.9 °F 92.9 °F 63.0 °F 38% 29.94 in 10.0 mi Calm Calm - N/A   Partly Cloudy
3:53 PM 91.0 °F 93.8 °F 66.0 °F 44% 29.92 in 10.0 mi Variable 6.9 mph - N/A   Mostly Cloudy
5:53 PM 93.0 °F 92.3 °F 59.0 °F 32% 29.92 in 10.0 mi North 11.5 mph - N/A   Mostly Cloudy
6:53 PM 89.1 °F 87.3 °F 55.9 °F 32% 29.93 in 10.0 mi North 4.6 mph - N/A   Partly Cloudy
7:53 PM 78.1 °F - 63.0 °F 60% 29.94 in 10.0 mi Calm Calm - N/A   Clear
8:53 PM 75.0 °F - 64.9 °F 71% 29.96 in 10.0 mi Calm Calm - N/A   Clear
9:53 PM 73.9 °F - 66.0 °F 76% 29.97 in 10.0 mi Calm Calm - N/A   Clear
10:53 PM 72.0 °F - 66.0 °F 81% 29.97 in 10.0 mi Calm Calm - N/A   Clear
11:53 PM 71.1 °F - 68.0 °F 90% 29.97 in 10.0 mi Calm Calm - N/A   Clear